GW6039 Weather Reports


time (UTC)temp
C
wind
direction
speed
KPH
gust
KPH
rain 1hr
cm
rain 24hr
cm
rain mn
cm
humidity
%
barometer
mb
20260507190022 32 229 3.2 11.3 0.00 0.00 0.00 13 1011.8
20260507184524 32 246 4.8 9.7 0.00 0.00 0.00 14 1012.0
20260507183027 33 143 4.8 11.3 0.00 0.00 0.00 13 1012.2
20260507181527 32 171 1.6 11.3 0.00 0.00 0.00 14 1012.4
20260507180028 32 198 3.2 9.7 0.00 0.00 0.00 15 1012.5
20260507174528 31 187 4.8 9.7 0.00 0.00 0.00 15 1012.7
20260507173038 31 18 1.6 6.4 0.00 0.00 0.00 15 1012.9
20260507171526 29 319 0.0 4.8 0.00 0.00 0.00 17 1013.0
20260507170024 29 105 3.2 8.0 0.00 0.00 0.00 17 1013.1
20260507164522 27 69 1.6 3.2 0.00 0.00 0.00 19 1013.2
20260507163022 27 206 0.0 4.8 0.00 0.00 0.00 20 1013.3
20260507161512 26 82 0.0 4.8 0.00 0.00 0.00 21 1013.5
20260507160022 26 163 1.6 4.8 0.00 0.00 0.00 21 1013.6
20260507154519 25 136 1.6 4.8 0.00 0.00 0.00 22 1013.7
20260507151514 22 188 0.0 4.8 0.00 0.00 0.00 26 1013.6
20260507150012 21 233 0.0 3.2 0.00 0.00 0.00 27 1013.4
20260507144511 20 237 0.0 3.2 0.00 0.00 0.00 28 1013.4
20260507143008 19 182 0.0 3.2 0.00 0.00 0.00 28 1013.5
20260507141504 19 257 1.6 4.8 0.00 0.00 0.00 27 1013.6
20260507140024 18 261 0.0 3.2 0.00 0.00 0.00 28 1013.4
20260507134518 18 261 1.6 3.2 0.00 0.00 0.00 30 1013.1
20260507133018 17 260 0.0 3.2 0.00 0.00 0.00 32 1013.2
20260507131514 17 174 0.0 4.8 0.00 0.00 0.00 30 1013.1
20260507130014 16 125 0.0 9.7 0.00 0.00 0.00 30 1013.0
20260507124511 16 179 1.6 3.2 0.00 0.00 0.00 34 1012.9
20260507123009 17 197 1.6 4.8 0.00 0.00 0.00 34 1012.9
20260507121510 18 91 1.6 4.8 0.00 0.00 0.00 31 1013.0
20260507120023 19 325 1.6 3.2 0.00 0.00 0.00 30 1013.0
20260507114521 19 329 1.6 4.8 0.00 0.00 0.00 29 1013.1
20260507113023 18 300 0.0 4.8 0.00 0.00 0.00 29 1013.0
20260507111533 18 304 1.6 3.2 0.00 0.00 0.00 30 1013.1
20260507110018 17 333 1.6 4.8 0.00 0.00 0.00 31 1013.2
20260507104519 17 327 1.6 4.8 0.00 0.00 0.00 30 1013.2
20260507103013 17 129 0.0 3.2 0.00 0.00 0.00 27 1013.1
20260507101510 17 129 1.6 3.2 0.00 0.00 0.00 27 1013.1
20260507100034 17 157 0.0 3.2 0.00 0.00 0.00 27 1013.3
20260507094538 17 157 0.0 3.2 0.00 0.00 0.00 27 1013.4
20260507071526 20 155 0.0 3.2 0.00 0.00 0.00 25 1013.9
20260507070022 20 138 0.0 3.2 0.00 0.00 0.00 26 1013.9
20260507064523 20 135 0.0 0.0 0.00 0.00 0.00 25 1013.8
20260507061518 20 135 0.0 3.2 0.00 0.00 0.00 25 1013.8
20260507060012 21 212 0.0 3.2 0.00 0.00 0.00 25 1013.8
20260507054536 21 212 0.0 3.2 0.00 0.00 0.00 25 1014.0
20260507053027 22 245 0.0 3.2 0.00 0.00 0.00 25 1013.8
20260507051524 22 246 0.0 3.2 0.00 0.00 0.00 25 1013.8
20260507050024 23 223 0.0 3.2 0.00 0.00 0.00 25 1013.7
20260507044543 23 218 0.0 3.2 0.00 0.00 0.00 24 1013.5
20260507043022 23 229 0.0 4.8 0.00 0.00 0.00 24 1013.4
20260507040018 24 230 0.0 3.2 0.00 0.00 0.00 24 1013.1
20260507034533 24 240 0.0 3.2 0.00 0.00 0.00 23 1013.0
20260507033028 25 184 1.6 4.8 0.00 0.00 0.00 22 1012.9
20260507031527 26 248 1.6 4.8 0.00 0.00 0.00 20 1012.6
20260507030029 26 235 0.0 3.2 0.00 0.00 0.00 20 1012.3
20260507023025 27 248 0.0 3.2 0.00 0.00 0.00 19 1012.0
20260507021522 27 247 1.6 4.8 0.00 0.00 0.00 19 1012.0
20260507014525 28 256 1.6 4.8 0.00 0.00 0.00 19 1012.0
20260507013031 28 285 1.6 9.7 0.00 0.00 0.00 19 1012.0
20260507011528 28 309 1.6 6.4 0.00 0.00 0.00 19 1012.0
20260507010029 28 188 1.6 4.8 0.00 0.00 0.00 18 1012.0
20260507004531 28 305 3.2 6.4 0.00 0.00 0.00 18 1011.9
20260507001512 29 188 1.6 6.4 0.00 0.00 0.00 18 1011.9
20260507000018 29 308 4.8 9.7 0.00 0.00 0.00 18 1012.0
20260506233023 28 199 0.0 4.8 0.00 0.00 0.00 18 1012.1
20260506231518 29 181 6.4 12.9 0.00 0.00 0.00 18 1012.2
20260506230016 29 273 1.6 11.3 0.00 0.00 0.00 18 1012.3
20260506224512 30 117 3.2 8.0 0.00 0.00 0.00 18 1012.4
20260506223009 29 297 4.8 8.0 0.00 0.00 0.00 18 1012.7
20260506220020 28 262 3.2 11.3 0.00 0.00 0.00 19 1013.0
20260506214520 29 305 4.8 12.9 0.00 0.00 0.00 19 1013.2
20260506211519 28 2 6.4 12.9 0.00 0.00 0.00 18 1013.8
20260506210021 28 340 8.0 12.9 0.00 0.00 0.00 19 1014.0
20260506204517 28 198 4.8 12.9 0.00 0.00 0.00 18 1014.3
20260506203016 27 21 0.0 9.7 0.00 0.00 0.00 19 1014.4
20260506201510 27 10 3.2 9.7 0.00 0.00 0.00 20 1014.5
20260506200022 27 68 8.0 16.1 0.00 0.00 0.00 20 1014.7
20260506194522 27 259 4.8 12.9 0.00 0.00 0.00 20 1014.9
20260506193024 27 152 4.8 14.5 0.00 0.00 0.00 21 1015.1
20260506191521 27 196 4.8 9.7 0.00 0.00 0.00 21 1015.2